Location: Unspecified
(35.6961°N, 0.0000°E)
Time: 17:15:15
(UTC+00:00)

Explorer 11/Cluster Stage 4 - Pass Details

Date: 26 May 2019
Orbit: 467 x 1260 km, 28.8° (Epoch: 19 June)

Event Time Altitude Azimuth Distance (km) Brightness Sun altitude
Rises 06:41:23 0° 259° (W) 2,775 8.8 20.8°
Reaches altitude 10° 06:44:56 10° 230° (SW) 1,745 7.9 21.5°
Maximum altitude 06:46:40 13° 203° (SSW) 1,536 7.9 21.9°
Drops below altitude 10° 06:48:21 10° 176° (S) 1,653 8.3 22.2°
Sets 06:51:30 0° 146° (SE) 2,483 9.5 22.9°
